Regional Weather Roundup
Issued by NWS

Home | Current Version | Previous Version | Text Only | Print | Product List | Glossary On
Versions: 1 2 3 4 5 6 7 8 9 10 11 12 13 14 15 16 17 18 19 20 21 22 23 24 25 26 27 28 29 30 31 32 33 34 35 36 37 38 39 40 41 42 43 44 45 46 47 48 49 50
000
ASUS44 KFWD 280315
RWRTX
NORTH TEXAS HOURLY WEATHER ROUNDUP
NATIONAL WEATHER SERVICE FORT WORTH TX
1000 PM CDT THU APR 27 2017

NOTE: "FAIR" INDICATES FEW OR NO CLOUDS BELOW 12,000 FEET WITH NO
SIGNIFICANT WEATHER AND/OR OBSTRUCTIONS TO VISIBILITY.

TXZ118-119-280400-
DALLAS/FORT WORTH METROPLEX

CITY           SKY/WX    TMP DP  RH WIND       PRES   REMARKS
DFW AIRPORT    MOCLDY    70  53  54 SE16      29.56S
DALLAS LOVE    PTCLDY    70  53  54 SE18      29.58F
FTW MEACHAM    CLEAR     72  52  49 SE18G26   29.55S
DAL-EXECUTIVE  PTCLDY    67  54  63 SE13      29.59S
FTW-ALLIANCE   PTCLDY    69  52  54 SE15      29.55S
FTW-NAS-JRB    PTCLDY    72  51  47 SE20G26   29.56S
FTW-SPINKS     CLEAR     69  51  53 SE13G21   29.59S
ARLINGTON      CLEAR     69  51  52 SE13      29.58F
GRAND PRAIRIE  CLEAR     68  52  55 SE10      29.59F
ADDISON        CLEAR     70  52  52 SE10G29   29.59F
MESQUITE       CLEAR     61  55  78 SE7       29.62S
LANCASTER      PTCLDY    62  54  74 SE6       29.62S
$$

TXZ091>094-102>105-117-120-121-131>134-280400-
NORTH CENTRAL TEXAS

CITY           SKY/WX    TMP DP  RH WIND       PRES   REMARKS
SHRMAN/DENISON CLEAR     64  51  64 E9        29.62R
GAINESVILLE    CLEAR     64  51  61 SE14      29.59R
BOWIE          CLEAR     67  51  56 SE14G22   29.53S
BRIDGEPORT     CLEAR     69  49  48 SE13G20   29.54R
DECATUR        CLEAR     67  50  54 SE14G20   29.55S
DENTON         CLEAR     67  53  61 SE13G24   29.56S
MCKINNEY       CLEAR     64  56  75 SE9       29.60S
BONHAM         PTCLDY    63  52  67 SE12      29.63S
GREENVILLE     CLEAR     64  54  68 SE8       29.64S
ROCKWALL       PTCLDY    63  55  73 SE8       29.62S
TERRELL        PTCLDY    66  53  63 SE10      29.64R
WAXAHACHIE     PTCLDY    66  54  64 SE8       29.62S
CLEBURNE       CLEAR     68  54  60 SE14G21   29.59F
GRANBURY       CLEAR     72  52  48 SE18G24   29.56F
$$

TXZ083>090-098>101-113>116-127>130-139>142-154-155-280400-
WESTERN NORTH TEXAS

CITY           SKY/WX    TMP DP  RH WIND       PRES   REMARKS
WICHITA FALLS  CLEAR     65  48  54 E15       29.49S
VERNON         CLOUDY    72  43  35 SE25G31   29.44R
ABILENE        CLEAR     75  51  43 S16       29.50R
ABILENE-DYESS  CLEAR     77  52  40 S24G32    29.48R
GRAHAM         CLEAR     71  50  47 SE15G23   29.46S
BRECKENRIDGE   CLEAR     77  44  30 S16G26    29.49R
CISCO          CLEAR     75  48  38 S18G25    29.52R
RANGER         CLEAR     72  46  39 S14G23    29.54S
MINERAL WELLS  CLEAR     69  50  50 SE16      29.52S
STEPHENVILLE   CLEAR     69  49  48 SE10      29.59R
COMANCHE       CLOUDY    72  48  41 S12G17    29.56R
BROWNWOOD      CLEAR     75  48  38 S13G18    29.54F
COLEMAN        PTCLDY    74  47  38 S10       29.54S
$$

TXZ143>147-156>162-174-175-280400-
CENTRAL TEXAS

CITY           SKY/WX    TMP DP  RH WIND       PRES   REMARKS
WACO           CLOUDY    69  55  60 SE8       29.62R
WACO-TSTC      CLEAR     64  55  72 S6        29.63R
WACO-MCGREGOR  PTCLDY    67  55  65 SE8       29.62R
HILLSBORO      CLOUDY    68  54  60 SE12      29.61F
CORSICANA      PTCLDY    68  57  68 SE8       29.65R
MEXIA          PTCLDY    65  53  65 SE5       29.64R
HEARNE         CLOUDY    69  57  64 SE6       29.64S
CAMERON        CLEAR     70  56  60 S9        29.62S
TEMPLE         CLEAR     69  55  60 SE9       29.62R
KILLEEN        CLEAR     69  54  57 SE14      29.60R
KILLEEN-SKYLRK CLEAR     71  55  56 SE14      29.62R
FORT HOOD      CLEAR     71  54  54 SE12      29.58R
GATESVILLE     CLEAR     70  54  56 SE6       29.63R
HAMILTON       CLOUDY    71  50  47 S14       29.59F
LAMPASAS       CLEAR     71  55  56 SE6       29.60R
$$

TXZ095>097-106>112-122>126-135>138-148>153-164>167-280400-
EAST TEXAS

CITY           SKY/WX    TMP DP  RH WIND       PRES   REMARKS
PARIS          CLEAR     61  52  72 E12       29.67S
SULPHUR SPRNGS CLEAR     62  54  76 E6        29.68S
MOUNT PLEASANT   N/A     64  53  68 E6        29.70R VSB 3/4
GILMER         CLOUDY    64  54  69 SE5       29.69R
MINEOLA        CLOUDY    61  55  82 E3        29.66S
TYLER          PTCLDY    66  53  63 SE7       29.67R
LONGVIEW       MOCLDY    62  57  83 E3        29.68R
MARSHALL       CLOUDY    65  56  71 CALM      29.72R
ATHENS         CLEAR     63  54  72 SE3       29.64R
PALESTINE      CLEAR     69  55  61 SE7       29.66R
JACKSONVILLE   CLEAR     68  55  63 S12       29.68R
HENDERSON      PTCLDY    64  54  71 CALM      29.70R
CENTER         CLEAR     69  58  68 E9        29.69F
NACOGDOCHES    CLEAR     66  54  63 SE6       29.66S
LUFKIN         CLEAR     65  57  75 SE7       29.68R
$$

SUPPLEMENTAL OBSERVATIONS (CENTRAL)

CITY           SKY/WX    TMP DP  RH WIND       PRES   REMARKS
DENISON DAM      N/A     64  52  63 E8          N/A
PAT MAYSE LAKE   N/A     63  54  72 E7          N/A
GREENVILLE       N/A     64  54  68 E7          N/A
CEDAR HILL       N/A     66  50  55 SE7         N/A
LAKE LIMESTONE   N/A     66  52  59 SE5         N/A
MCGREGOR         N/A     70  52  52 S10         N/A
TEMPLE           N/A     68  54  60 E5G13       N/A
$$

SUPPLEMENTAL OBSERVATIONS (WEST)

CITY           SKY/WX    TMP DP  RH WIND       PRES   REMARKS
MILLERS CREEK    N/A     75  48  38 S16G23      N/A
POSSUM KINGDOM   N/A     72  46  40 SE14G25     N/A
GRANBURY         N/A     72  52  49 SE17G23     N/A
COMANCHE         N/A     72  46  40 S13G21      N/A
HAMBY            N/A     75  48  38 S18G24      N/A
IVIE RESERVOIR   N/A     77  48  36 S15         N/A
COLORADO BEND    N/A     73  52  46 SW12        N/A
$$

SUPPLEMENTAL OBSERVATIONS (EAST)

CITY           SKY/WX    TMP DP  RH WIND       PRES   REMARKS
TEXARKANA        N/A     59  55  88 CALM        N/A
LINDEN           N/A     59  55  88 E1          N/A
CADDO LAKE       N/A     55  54  94 CALM        N/A
GILMER           N/A     64  52  63 SE5         N/A
HENDERSON        N/A     63  54  72 E2          N/A
LUFKIN           N/A     68  54  60 MISG        N/A
N SABINE NF      N/A     61  57  88 MISG        N/A
$$

SUPPLEMENTAL OBSERVATIONS ARE A COLLECTION OF AUTOMATED INSTRUMENTS
THAT ARE MAINTAINED BY A VARIETY OF FEDERAL AND STATE AGENCIES.
CERTAIN ELEMENTS...SUCH AS HUMIDITY VALUES AND SUSTAINED WIND
SPEEDS...MAY BE APPROXIMATED.





USA.gov is the U.S. government's official web portal to all federal, state and local government web resources and services.